Volver al catálogo

HAWK-12A

ActivoMilitarSSO
NORAD 64623·PAYLOAD·🇺🇸 United States

Lanzado Jun 26, 2025 desde Rocket Lab Launch Complex 1

Loading…

Próximos Pases (próximas 24 horas)

TLE

ActualizadoSource: Space-Track

Época: Sep 14, 2026, 11:07 UTC

1 64623U 25138C   26257.46332108  .00002830  00000-0  13913-3 0  9992
2 64623  97.4453 258.8420 0013663 179.4175 180.7078 15.18774789 67413

Sigue HAWK-12A en tiempo real con AllMySat

Download on the App Store